Home > Weather > Farmington > Past weeks

Flag for U.S.A. Weather for the Past 2 Weeks in Farmington, New Mexico, U.S.A.

Now
54 °F

Sunny.


Feels Like: 51 °F
Forecast: 23 / 53 °F
Wind: 9 mph from West

Location: Four Corners Regional Airport

Current Time: Feb 10, 2016 at 3:48:51 PM

Latest Report: Feb 10, 2016 at 2:53 PM


Visibility: 10 mi

Pressure: 30.34 "Hg (25.00 "Hg at 1617m altitude)

Humidity: 31%

Dew point: 24 °F

Location of FarmingtonLocation

Historic Weather in Farmington — Graph

°F

Farmington Temperature Yesterday

Maximum temperature yesterday: 51 °F (at 3:53 PM)
Minimum temperature yesterday: 21 °F (at 4:53 AM)
Average temperature yesterday: 34 °F

High & Low Weather Summary for the Past Weeks

 TemperatureHumidityPressure
High62 °F (Jan 28, 3:53 PM)96% (Feb 1, 4:53 AM)30.67 "Hg (Feb 1, 4:53 AM)
Low4 °F (Feb 4, 5:53 AM)20% (Jan 28, 3:53 PM)29.36 "Hg (Feb 1, 3:53 AM)
Average30 °F62%30.25 "Hg
* Reported Jan 26 1:53 PM — Feb 10 1:53 PM, Farmington, Weather by CustomWeather, © 2016

Note: Actual official high and low records may vary slightly from our data, if they occured in-between our weather recording intervals... More about our weather records

Advertising

Farmington Weather History for the Previous 24 Hours

 ConditionsComfort  
Time TempWeatherWind HumidityBarometerVisibility
1:53 PM
Wed, Feb 10
52 °FSunny.7 mph32%30.37 "Hg10 mi
12:53 PM51 °FSunny.3 mph35%30.41 "Hg10 mi
11:53 AM47 °FSunny.3 mph41%30.45 "Hg10 mi
10:53 AM41 °FSunny.3 mph51%30.50 "Hg10 mi
9:53 AM35 °FSunny.6 mph61%30.54 "Hg10 mi
8:53 AM31 °FSunny.8 mph69%30.53 "Hg10 mi
7:53 AM26 °FSunny.6 mph77%30.55 "Hg10 mi
6:53 AM24 °FClear.6 mph81%30.51 "Hg10 mi
5:53 AM23 °FClear.8 mph85%30.49 "Hg10 mi
4:53 AM25 °FClear.7 mph81%30.46 "Hg10 mi
3:53 AM25 °FClear.7 mph81%30.45 "Hg10 mi
2:53 AM27 °FClear.7 mph78%30.44 "Hg10 mi
1:53 AM27 °FClear.7 mph78%30.45 "Hg10 mi
12:53 AM28 °FClear.5 mph75%30.44 "Hg10 mi
11:53 PM
Tue, Feb 9
30 °FClear.8 mph72%30.45 "Hg10 mi
10:53 PM30 °FClear.10 mph72%30.46 "Hg10 mi
9:53 PM30 °FClear.7 mph75%30.47 "Hg10 mi
8:53 PM33 °FClear.7 mph63%30.46 "Hg10 mi
7:53 PM32 °FClear.6 mph69%30.47 "Hg10 mi
6:53 PM40 °FClear.No wind51%30.44 "Hg10 mi
5:53 PM43 °FClear.3 mph42%30.42 "Hg10 mi
4:53 PM51 °FSunny.3 mph32%30.40 "Hg10 mi
3:53 PM51 °FSunny.7 mph31%30.39 "Hg10 mi
Weather by CustomWeather, © 2016

See weather overviewHow to use our weather pages